Flag for Greenland Weather past 2 weeks in Qaanaaq, Greenland

Now
-13 °F

Sunny.


Feels Like: -35 °F
Forecast: -19 / 7 °F
Wind: 14 mph from East

Location: Thule A. B.

Current Time: Mar 29, 2015 at 11:36:47 PM

Latest Report: Mar 29, 2015 at 10:58 PM


Visibility: N/A

Pressure: 29.50 "Hg

Humidity: 69%

Dew point: -20 °F

Location of QaanaaqLocation

Historic Weather in Qaanaaq — Graph

°F

Qaanaaq temperature yesterday

Maximum temperature yesterday: 7 °F (at 12:58 PM)
Minimum temperature yesterday: 0 °F (at 12:58 AM)
Average temperature yesterday: 3 °F

Past Weeks' High & Low Weather Summary

 TemperatureHumidityPressure
High19 °F (Mar 17, 7:58 PM)92% (Mar 17, 7:58 AM)30.30 "Hg (Mar 17, 7:58 AM)
Low-17 °F (Mar 14, 8:58 PM)53% (Mar 17, 7:58 PM)28.92 "Hg (Mar 14, 9:58 PM)
Average2 °F71%29.59 "Hg
* Reported Mar 14 8:58 PM — Mar 29 9:58 PM, Qaanaaq, Weather by CustomWeather, © 2015

Note: Actual official high and low records may vary slightly from our data, if they occured in-between our weather recording intervals... More about our weather records

Advertising

Qaanaaq weather history for previous 24 hours

 ConditionsComfort  
Time TempWeatherWind HumidityBarometerVisibility
9:58 PM
Sun, Mar 29
-11 °FSunny.12 mph70%29.51 "HgN/A
8:58 PM-11 °FSunny.8 mph70%29.52 "HgN/A
7:58 PM-9 °FSunny.8 mph77%29.52 "HgN/A
6:58 PM-6 °FSunny.6 mph70%29.52 "HgN/A
5:58 PM-4 °FSunny.5 mph71%29.51 "HgN/A
4:58 PM-4 °FSunny.9 mph71%29.50 "HgN/A
3:58 PM-4 °FSunny.6 mph77%29.50 "HgN/A
2:58 PM-4 °FSunny.5 mph77%29.49 "HgN/A
1:58 PM-2 °FSunny.2 mph71%29.50 "HgN/A
12:58 PM-6 °FSunny.3 mph70%29.49 "HgN/A
11:58 AM-6 °FSunny.7 mph77%29.48 "HgN/A
10:58 AM-4 °FSunny.5 mph71%29.47 "HgN/A
9:58 AM-6 °FSunny.2 mph77%29.45 "HgN/A
8:58 AM-6 °FClear.No wind77%29.44 "HgN/A
7:58 AM-6 °FClear.No wind77%29.43 "HgN/A
6:58 AM-6 °FPassing clouds.7 mph77%29.42 "HgN/A
5:58 AM-6 °FPassing clouds.6 mph77%29.40 "HgN/A
4:58 AM-6 °FClear.7 mph77%29.39 "HgN/A
4:02 AM-4 °FPassing clouds.8 mph77%29.41 "Hg4 mi
3:58 AM-6 °FLight snow. Passing clouds.9 mph84%29.38 "Hg5 mi
2:58 AM-6 °FClear.9 mph70%29.37 "HgN/A
1:58 AM-2 °FClear.17 mph71%29.36 "HgN/A
12:58 AM0 °FOvercast.16 mph71%29.36 "HgN/A
11:58 PM
Sat, Mar 28
1 °FPassing clouds.20 mph71%29.35 "HgN/A
11:03 PM1 °FScattered clouds.18 mph71%29.38 "Hg6 mi
Weather by CustomWeather, © 2015

See weather overviewHow to use our weather pages